Flag for Japan Weather past 2 weeks in Fukushima, Japan

Now
39 °F

Light rain. Cloudy.


Feels Like: 37 °F
Forecast: 32 / 41 °F
Wind: 3 mph from South

Location: Wakamatsu

Current Time: Mar 1, 2015 at 6:05:35 PM

Latest Report: Mar 1, 2015 at 5:00 PM


Visibility: 4 mi

Pressure: 29.76 "Hg

Humidity: 94%

Dew point: 38 °F

Location of FukushimaLocation

Historic Weather in Fukushima — Graph

°F

Fukushima temperature yesterday

Maximum temperature yesterday: 41 °F (at 1:00 PM)
Minimum temperature yesterday: 30 °F (at 10:00 PM)
Average temperature yesterday: 34 °F

Past Weeks' High & Low Weather Summary

 TemperatureHumidityPressure
High49 °F (Feb 22, 2:00 PM)100% (Feb 18, 8:00 PM)30.41 "Hg (Feb 18, 8:00 PM)
Low25 °F (Feb 17, 6:00 AM)47% (Feb 17, 11:00 AM)29.75 "Hg (Feb 27, 1:00 AM)
Average36 °F81%30.05 "Hg
* Reported Feb 14 4:00 PM — Mar 1 4:00 PM, Fukushima, Weather by CustomWeather, © 2015

Note: Actual official high and low records may vary slightly from our data, if they occured in-between our weather recording intervals... More about our weather records

Advertising

Fukushima weather history for previous 24 hours

 ConditionsComfort  
Time TempWeatherWind HumidityBarometerVisibility
4:00 PM
Sun, Mar 1
45 °FLight rain. Cloudy.7 mph77%29.77 "Hg12 mi
3:00 PM46 °FLight rain. Cloudy.14 mph72%29.80 "Hg12 mi
2:00 PM42 °FQuite cool.2 mph73%29.85 "Hg12 mi
1:00 PM43 °FQuite cool.3 mph69%29.89 "Hg12 mi
11:00 AM37 °FChilly.3 mph82%30.03 "Hg12 mi
10:00 AM36 °FChilly.5 mph84%30.07 "Hg12 mi
9:00 AM33 °FChilly.1 mph91%30.14 "Hg11 mi
8:00 AM31 °FChilly.3 mph93%30.18 "Hg9 mi
7:00 AM31 °FLight snow. Cloudy.1 mph95%30.20 "Hg3 mi
6:00 AM30 °FChilly.2 mph89%30.22 "Hg12 mi
5:00 AM29 °FChilly.3 mph90%30.24 "Hg12 mi
4:00 AM29 °FChilly.2 mph92%30.24 "Hg12 mi
3:00 AM29 °FChilly.2 mph91%30.26 "Hg12 mi
2:00 AM28 °FChilly.3 mph93%30.27 "Hg11 mi
1:00 AM28 °FChilly.1 mph92%30.31 "Hg11 mi
12:00 AM29 °FChilly.3 mph89%30.33 "Hg12 mi
11:00 PM
Sat, Feb 28
30 °FChilly.2 mph88%30.34 "Hg12 mi
10:00 PM30 °FChilly.No wind88%30.37 "Hg12 mi
9:00 PM30 °FChilly.1 mph87%30.37 "Hg12 mi
8:00 PM32 °FChilly.3 mph82%30.37 "Hg12 mi
7:00 PM34 °FChilly.3 mph76%30.37 "Hg12 mi
6:00 PM35 °FChilly.3 mph72%30.35 "Hg12 mi
Weather by CustomWeather, © 2015

See weather overviewHow to use our weather pages